星链-5876 (STARLINK-5876 )

导读

STARLINK-5876是美国SpaceX公司星链(Starlink)项目的近地轨道通信卫星,于2023年4月27日发射升空。作为星链全球互联网组网的组成部分,它依托激光星间链路技术,搭配Ku、Ka等通信频段,可为全球偏远、网络覆盖盲区提供低时延高速宽带服务,助力星链完成全球无缝覆盖的组网目标。

基本信息
目录编号:
56321
目录名称:
STARLINK-5876
国际标识:
2023-058E
轨道中心:
EARTH
卫星名称:
星链-5876
卫星全名:
星链-5876 (STARLINK-5876 )
卫星状态:
在轨 (已飞行1145 天)
发射日期:
2023-04-27 UTC
国别 :
美国 (US)
星等 :
--
轨道信息
数据来源 国际轨道数据
星历时间: 2026-06-15T05:05:11+0800
3小时前
查看轨道信息
半长轴: 6932.047km
偏心率: 0.0001145
轨道倾角: 97.362°
近地点辐角 162.164°
升交点赤经 166.151°
平近点角 197.962°
近地点: 553.116km
远地点: 554.704km
周期: 95.731分钟
每日圈数: 15.042173
详细信息
固有亮度:
5
最大亮度:
2.5
卫星平台:
Starlink v1.5
覆盖范围:
全球
运营商:
太空探索技术公司
运营商所在国:
美国
制造商(研发单位):
太空探索技术公司
制造商所在国:
美国
使用方式:
暂无
卫星简介
星链(Starlink)计划是由太空探索技术公司(SpaceX)提出的一个巨型低轨卫星互联网星座项目,计划在2019年至2024年间在太空搭建由约1.2万颗卫星组成的“星链”网络,其中1584颗将部署在地球上空550千米处的近地轨道,并从2020年开始工作。该卫星仍在工作。
2D轨道图
3D轨道图
轨道高度分析图
轨道倾角分析图
轨道综合分析图
查看轨道综合分析图